"Pseudo-MPEC" for P11WgaH
Created 2024 Jul 14 21:22:07 UT using Find_Orb
Click here for an explanation of pseudo-MPECs
Astrometry:
P11WgaH* C2024 07 06.35963816 06 01.272-09 19 10.44 ~76Cb 20.27wXNEOCPF51
P11WgaH C2024 07 06.37190716 06 20.136-09 22 34.06 ~76Cb 20.20wXNEOCPF51
P11WgaH C2024 07 06.39643116 06 58.052-09 29 21.44 ~76Cb 20.00wXNEOCPF51
Station data:
(F51) Pan-STARRS 1, Haleakala (N20.707234 W156.255910) US/Hawaii.
Observers J. Bulger, T. Lowe, A. Schultz, M. Willman. Measurers K.
Chambers, S. Chastel, T. de Boer, L. Denneau, J. Fairlamb, H. Flewelling,
M. Huber, C.-C. Lin, E. Magnier, Y. Ramanjooloo, R. Wainscoat, R. Weryk.
1.8-m Ritchey-Chrétien + CCD.
Orbital elements: P11WgaH
Perihelion 2024 May 7.92838 +/- 25.4 TT = 22:16:52 (JD 2460438.42838)
Epoch 2024 Jul 6.0 TT = JDT 2460497.5 Earth MOID: 0.0124 Ve: 0.0164
M 36.82143734 +/- 28 Ma: 0.0126 AutoNEOCP
n 0.62333549 +/- 0.43 Peri. 73.54416 +/- 60
a 1.35723424 +/- 0.624 Node 109.78327 +/- 47
e 0.5436900 +/- 0.232 Incl. 4.00778 +/- 2.7
P 1.581/577.527d H 24.99 G 0.15 U 12.2 SR
q 0.61931949 +/- 0.22 Q 2.09514899 +/- 46.3 (J2000 ecliptic)
From 3 observations 2024 July 6 (53.0 min); mean residual 0".68
Residuals in arcseconds: 240706 F51 .74+ .52- 240706 F51 1.1- .78+ 240706 F51 .36+ .26- Ephemerides (geocentric): Date (UTC) HH RA Dec delta r elong mag " sig PA ---- -------- ------------ ------------ ------ ------ ----- --- -------- 2024 07 14 21 17 40 41.368 -23 19 41.49 .12461 1.1289 153.0 21.9 33d 91 2024 07 14 22 17 40 52.483 -23 20 58.60 .12503 1.1293 153.0 21.9 33d 91 2024 07 14 23 17 41 03.536 -23 22 15.15 .12544 1.1297 153.0 21.9 33d 91 2024 07 15 00 17 41 14.525 -23 23 31.14 .12586 1.1301 153.0 21.9 33d 91 2024 07 15 01 17 41 25.454 -23 24 46.59 .12628 1.1304 153.0 21.9 33d 91 2024 07 15 02 17 41 36.320 -23 26 01.50 .12670 1.1308 153.0 21.9 33d 91 2024 07 15 03 17 41 47.127 -23 27 15.86 .12712 1.1312 153.0 21.9 33d 91 2024 07 15 04 17 41 57.873 -23 28 29.70 .12754 1.1316 153.0 21.9 33d 91 2024 07 15 05 17 42 08.559 -23 29 43.01 .12795 1.1320 153.0 21.9 33d 91 2024 07 15 06 17 42 19.187 -23 30 55.80 .12837 1.1323 153.0 21.9 33d 91 2024 07 15 07 17 42 29.756 -23 32 08.07 .12879 1.1327 153.0 21.9 33d 91 2024 07 15 08 17 42 40.267 -23 33 19.83 .12921 1.1331 153.0 21.9 33d 91 2024 07 15 09 17 42 50.721 -23 34 31.09 .12963 1.1335 153.0 21.9 33d 91 2024 07 15 10 17 43 01.118 -23 35 41.84 .13005 1.1339 153.0 22.0 33d 91 2024 07 15 11 17 43 11.459 -23 36 52.10 .13047 1.1343 153.0 22.0 33d 91 2024 07 15 12 17 43 21.743 -23 38 01.87 .13089 1.1346 153.0 22.0 33d 92 2024 07 15 13 17 43 31.973 -23 39 11.15 .13131 1.1350 153.0 22.0 33d 92 2024 07 15 14 17 43 42.147 -23 40 19.95 .13173 1.1354 153.0 22.0 33d 92 2024 07 15 15 17 43 52.268 -23 41 28.27 .13215 1.1358 153.0 22.0 33d 92 2024 07 15 16 17 44 02.334 -23 42 36.12 .13257 1.1362 153.0 22.0 33d 92 2024 07 15 17 17 44 12.347 -23 43 43.50 .13299 1.1365 153.0 22.0 34d 92 2024 07 15 18 17 44 22.307 -23 44 50.42 .13342 1.1369 153.0 22.0 34d 92 2024 07 15 19 17 44 32.215 -23 45 56.88 .13384 1.1373 153.0 22.0 34d 92 2024 07 15 20 17 44 42.071 -23 47 02.88 .13426 1.1377 153.0 22.0 34d 92 2024 07 15 21 17 44 51.875 -23 48 08.43 .13468 1.1381 153.0 22.0 34d 92 2024 07 15 22 17 45 01.628 -23 49 13.54 .13510 1.1384 153.0 22.0 34d 92 2024 07 15 23 17 45 11.331 -23 50 18.20 .13552 1.1388 153.0 22.0 34d 92 2024 07 16 00 17 45 20.983 -23 51 22.43 .13595 1.1392 153.0 22.1 34d 92 2024 07 16 01 17 45 30.586 -23 52 26.22 .13637 1.1396 153.0 22.1 34d 92 2024 07 16 02 17 45 40.139 -23 53 29.58 .13679 1.1400 153.0 22.1 34d 92 2024 07 16 03 17 45 49.644 -23 54 32.52 .13721 1.1403 153.0 22.1 34d 92 2024 07 16 04 17 45 59.100 -23 55 35.03 .13763 1.1407 153.0 22.1 34d 92 2024 07 16 05 17 46 08.509 -23 56 37.13 .13806 1.1411 153.0 22.1 34d 92 2024 07 16 06 17 46 17.869 -23 57 38.81 .13848 1.1415 153.0 22.1 34d 92 2024 07 16 07 17 46 27.183 -23 58 40.08 .13890 1.1419 153.0 22.1 34d 92 2024 07 16 08 17 46 36.450 -23 59 40.95 .13933 1.1422 153.0 22.1 34d 92 2024 07 16 09 17 46 45.670 -24 00 41.41 .13975 1.1426 153.0 22.1 34d 92 2024 07 16 10 17 46 54.845 -24 01 41.47 .14017 1.1430 153.0 22.1 34d 92 2024 07 16 11 17 47 03.974 -24 02 41.14 .14060 1.1434 153.0 22.1 34d 92 2024 07 16 12 17 47 13.058 -24 03 40.42 .14102 1.1438 153.0 22.1 34d 92 2024 07 16 13 17 47 22.097 -24 04 39.30 .14144 1.1441 153.0 22.2 34d 92 2024 07 16 14 17 47 31.092 -24 05 37.80 .14187 1.1445 153.0 22.2 34d 92 2024 07 16 15 17 47 40.042 -24 06 35.92 .14229 1.1449 152.9 22.2 34d 92 2024 07 16 16 17 47 48.949 -24 07 33.66 .14272 1.1453 152.9 22.2 34d 92 2024 07 16 17 17 47 57.813 -24 08 31.03 .14314 1.1457 152.9 22.2 34d 92 2024 07 16 18 17 48 06.634 -24 09 28.02 .14356 1.1460 152.9 22.2 34d 92 2024 07 16 19 17 48 15.412 -24 10 24.65 .14399 1.1464 152.9 22.2 34d 92 2024 07 16 20 17 48 24.149 -24 11 20.91 .14441 1.1468 152.9 22.2 34d 92